Regional Weather Roundup
Issued by NWS

Home | Current Version | Previous Version | Text Only | Print | Product List | Glossary On
Versions: 1 2 3 4 5 6 7 8 9 10 11 12 13 14 15 16 17 18 19 20 21 22 23 24 25 26 27 28 29 30 31 32 33 34 35 36 37 38 39 40 41 42 43 44 45 46 47 48 49 50
000
ASUS43 KMKX 240559
RWRWI

WISCONSIN REGIONAL WEATHER ROUNDUP
NATIONAL WEATHER SERVICE MILWAUKEE/SULLIVAN WI
100 AM CDT THU JUL 24 2014

NOTE: "FAIR" INDICATES FEW OR NO CLOUDS BELOW 12,000 FEET WITH NO
SIGNIFICANT WEATHER AND/OR OBSTRUCTIONS TO VISIBILITY.

WIZ001-002-006>008-014>016-023>028-240700-
NORTHWEST WISCONSIN

CITY           SKY/WX    TMP DP  RH WIND       PRES   REMARKS
SUPERIOR ARPT  MOCLDY    53  52  97 CALM      30.19S
ASHLAND        CLEAR     51  50  96 CALM      30.19S FOG
6HR MIN TEMP:  50; 6HR MAX TEMP:  72;

HAYWARD        CLEAR     55  53  93 CALM      30.19S
6HR MIN TEMP:  54; 6HR MAX TEMP:  74;

SIREN          NOT AVBL
RICE LAKE      CLEAR     55  53  93 CALM      30.20R
LADYSMITH      CLEAR     55  51  86 CALM      30.20S
EAU CLAIRE     NOT AVBL
MENOMONIE      CLEAR     61  56  83 CALM      30.17S
NEW RICHMOND   CLEAR     58  56  92 CALM      30.17S
OSCEOLA        CLEAR     60  58  94 CALM      30.19S
$$

WIZ003>005-009-010-017-018-240700-
NORTH CENTRAL WISCONSIN

CITY           SKY/WX    TMP DP  RH WIND       PRES   REMARKS
WOODRUFF       CLEAR     52  43  72 CALM      30.21S
RHINELANDER    CLEAR     50  48  93 CALM      30.21S
6HR MIN TEMP:  49; 6HR MAX TEMP:  69;

EAGLE RIVER    CLEAR     48  48 100 CALM      30.20S FOG
LAND O LAKES   CLEAR     46  45  98 CALM      30.22S
PHILLIPS       CLEAR     51  50  97 CALM      30.20S
TOMAHAWK       CLEAR     48  47  95 CALM      30.21R FOG
MEDFORD        CLEAR     53  50  90 CALM      30.19S
MERRILL        CLEAR     52  51  97 CALM      30.19S
$$

WIZ029-030-035-036-043>047-240700-
CENTRAL WISCONSIN

CITY           SKY/WX    TMP DP  RH WIND       PRES   REMARKS
WAUSAU         PTCLDY    58  53  84 E3        30.18R
6HR MIN TEMP:  57; 6HR MAX TEMP:  74;

MOSINEE        CLEAR     55  54  94 E6        30.19S
MARSHFIELD     CLEAR     61  54  77 NE5       30.18R
6HR MIN TEMP:  61; 6HR MAX TEMP:  75;

STEVENS POINT  PTCLDY    57  52  83 CALM      30.18S
WAUPACA        PTCLDY    60  55  84 CALM      30.19S
WAUTOMA        NOT AVBL
WISC RAPIDS    PTCLDY    61  54  77 SE6       30.19R
6HR MIN TEMP:  56; 6HR MAX TEMP:  76;

CAMP DOUGLAS   CLEAR     55  55 100 SE2       30.16S FOG
$$

WIZ011>013-019>022-031-037>040-048>050-240700-
NORTHEAST WISCONSIN

CITY           SKY/WX    TMP DP  RH WIND       PRES   REMARKS
ANTIGO         CLEAR     55  50  85 SE3       30.21S
STURGEON BAY   PTCLDY    54  45  71 CALM      30.19S
6HR MIN TEMP:  54; 6HR MAX TEMP:  68;

GREEN BAY      PTCLDY    55  52  89 NW3       30.18S
6HR MIN TEMP:  55; 6HR MAX TEMP:  70;

MANITOWOC      NOT AVBL
APPLETON       MOCLDY    61  45  55 E3        30.19S
CLINTONVILLE   MOCLDY    55  54  94 CALM      30.19S
OSHKOSH        PTCLDY    58  50  75 CALM      30.18S
6HR MIN TEMP:  55; 6HR MAX TEMP:  72;

$$

WIZ032>034-041-042-053>061-240700-
SOUTHWEST WISCONSIN

CITY           SKY/WX    TMP DP  RH WIND       PRES   REMARKS
LA CROSSE      CLEAR     65  60  84 CALM      30.15R
6HR MIN TEMP:  63; 6HR MAX TEMP:  80;

SPARTA         PTCLDY    55  53  94 CALM      30.17S
VIROQUA        FAIR      61  56  83 E3        30.17S
BOSCOBEL       CLEAR     58  56  93 CALM      30.16S
6HR MIN TEMP:  58; 6HR MAX TEMP:  79;

PRAIRIE DU CHI MOCLDY    62  58  84 CALM      30.14S
PLATTEVILLE    FAIR      61  57  86 SE10      30.18R
$$

WIZ056-057-062-063-064-067-068-240700-
SOUTH CENTRAL WISCONSIN

CITY           SKY/WX    TMP DP  RH WIND       PRES   REMARKS
BARABOO/DELLS  PTCLDY    60  54  80 SE6       30.17F
LONE ROCK      NOT AVBL
WATERTOWN      CLEAR     54  50  87 CALM      30.17S
MADISON        CLEAR     58  50  75 SE3       30.18S
6HR MIN TEMP:  58; 6HR MAX TEMP:  75;

MIDDLETON      FAIR      62  48  61 SE5       30.19S
MONROE         CLEAR     59  54  82 CALM      30.18S
JANESVILLE     CLEAR     57  50  77 CALM      30.17S
$$

WIZ051-052-058>065-066-070>072-240700-
SOUTHEAST WISCONSIN

CITY           SKY/WX    TMP DP  RH WIND       PRES   REMARKS
MILWAUKEE      CLEAR     57  50  77 N7        30.16F
6HR MIN TEMP:  57; 6HR MAX TEMP:  63;

WAUKESHA       CLEAR     52  46  82 CALM      30.18S
MILWAUKEE/TIMM CLEAR     54  46  76 CALM      30.18S
RACINE         CLEAR     57  52  83 N6        30.18S
6HR MIN TEMP:  56; 6HR MAX TEMP:  63;

BURLINGTON     CLEAR     49  48  95 CALM      30.17S
KENOSHA        CLEAR     55  51  86 N5        30.16S
6HR MIN TEMP:  55; 6HR MAX TEMP:  64;

FOND DU LAC    CLEAR     55  48  77 CALM      30.18S
6HR MIN TEMP:  54; 6HR MAX TEMP:  70;

SHEBOYGAN      CLEAR     52  50  93 CALM      30.18S
6HR MIN TEMP:  51; 6HR MAX TEMP:  65;

WEST BEND      CLEAR     52  46  82 CALM      30.18S
JUNEAU         CLEAR     55  50  85 CALM      30.19S
$$

LSZ147-162-240700-
LAKE SUPERIOR

STATION/POSITION TIME  TEMP    WIND        PRES    WAVE
                       AIR SEA DIR/SP/G            HT/PER
                 (UTC) (F)     (DEG/KT/KT) (MB)    (FT/S)
$$

LMZ867-665-643>646-240700-
LAKE MICHIGAN

STATION/POSITION TIME  TEMP    WIND        PRES    WAVE
                       AIR SEA DIR/SP/G            HT/PER
                 (UTC) (F)     (DEG/KT/KT) (MB)    (FT/S)
$$

TC  - TEMPERATURE IN CELSIUS
VSB - VISIBILITY IN STATUTE MILES
WCI - WIND CHILL INDEX
HX  - HEAT INDEX




USA.gov is the U.S. government's official web portal to all federal, state and local government web resources and services.